[[{"header":{"parameterUnit":"m.s-1","parameterCategory":1,"la1":30.2991,"la2":30.254,"lo1":-89.0895,"lo2":-89.0444,"dy":0.0017,"dx":0.0017,"nx":28,"ny":28,"refTime":"2024-03-12T21:00:00:Z","depth":0,"parameterNumber":2,"parameterNumberName":"U-component_of_WINDS"},"data":[0,0,0,0,0,0,0,0,0,0,0,0,0,0,0,0,0,0,0,0,0,0,0,0,0,0,0,0,0,0,0,0,0,0,0,0,0,0,0,0,0,0,0,0,0,0,0,0,0,0,0,0,0,0,0,0,0,0,-4.4243,-4.4244,0,-4.4352,-4.4353,-4.4354,-4.4341,-4.434,-4.4338,-4.4336,-4.4446,-4.4451,-4.4455,0,0,0,0,0,0,0,0,0,0,0,0,0,-4.4024,-4.4028,-4.4243,-4.4244,-4.4246,-4.4352,-4.4353,-4.4355,-4.4342,-4.434,-4.4338,-4.4336,-4.4445,-4.445,-4.4456,0,0,0,0,0,0,0,0,0,0,0,0,0,-4.4124,-4.4029,-4.4243,-4.4252,-4.4254,-4.4351,-4.4353,-4.4355,-4.4342,-4.434,-4.4337,-4.4335,-4.4443,-4.445,-4.4457,-4.4551,0,0,-4.4477,-4.448,0,0,0,0,0,0,0,0,-4.4119,-4.4133,-4.4249,-4.4252,-4.4254,-4.433,-4.4316,-4.4421,-4.4343,-4.4309,-4.4336,-4.4333,-4.441,-4.4419,-4.4445,-4.4556,-4.4561,-4.4478,-4.4482,-4.4485,-4.4487,0,0,0,0,0,0,0,-4.4112,-4.4128,-4.4286,-4.4251,-4.4254,-4.4251,-4.4262,-4.4336,-4.4373,-4.4312,-4.4311,-4.4324,-4.4411,-4.4439,-4.4448,-4.4563,-4.4478,-4.4484,-4.4488,-4.4491,-4.4756,-4.4759,0,0,0,0,0,0,-4.4103,-4.4122,-4.4283,-4.4289,-4.4179,-4.4257,-4.427,-4.4309,-4.4372,-4.4379,-4.4326,-4.4323,-4.4428,-4.444,-4.4452,-4.4565,-4.4485,-4.4492,-4.4495,-4.4753,-4.4756,-4.476,0,0,0,0,0,0,-4.4098,-4.4117,-4.4278,-4.4206,-4.4226,-4.4263,-4.4307,-4.4312,-4.434,-4.4383,-4.4389,-4.4348,-4.4427,-4.4442,-4.4526,-4.4569,-4.4495,-4.4501,-4.4749,-4.4754,-4.4758,-4.4793,0,0,0,0,0,0,-4.4092,-4.4115,-4.4152,-4.4207,-4.423,-4.4351,-4.431,-4.4316,-4.4352,-4.4349,-4.4405,-4.4412,-4.4426,-4.4516,-4.4533,-4.4577,-4.4506,-4.4746,-4.4751,-4.4757,-4.4788,-4.4798,-4.4807,0,0,0,0,0,-4.4084,-4.4157,-4.4154,-4.4173,-4.4276,-4.4354,-4.4367,-4.4382,-4.4356,-4.4392,-4.442,-4.441,-4.4562,-4.4525,-4.4544,-4.459,-4.4743,-4.475,-4.4756,-4.4784,-4.4796,-4.4806,0,0,0,0,0,0,-4.4105,-4.4164,-4.4161,-4.4254,-4.4299,-4.4351,-4.4397,-4.4394,-4.4447,-4.4442,-4.4458,-4.4471,-4.4556,-4.4582,-4.4539,-4.4685,-4.4649,-4.466,-4.4664,-4.4676,-4.4685,-4.4675,-4.4512,0,0,0,0,0,-4.4121,-4.418,-4.4228,-4.4306,-4.4329,-4.4359,-4.4394,-4.4402,-4.4449,-4.4467,-4.4501,-4.4547,-4.4604,-4.4642,-4.4698,-4.4793,-4.4805,-4.4835,-4.4844,-4.4851,-4.4859,-4.491,-4.4924,-4.4781,-4.4781,-4.4781,0,0,-4.4154,-4.4193,-4.4229,-4.4311,-4.4347,-4.4406,-4.4375,-4.444,-4.4484,-4.4477,-4.4558,-4.4585,-4.4637,-4.4727,-4.4768,-4.4751,-4.4902,-4.486,-4.4865,-4.4869,-4.4918,-4.4932,-4.4944,-4.4786,-4.4785,-4.4784,0,0,-4.4243,-4.428,-4.4348,-4.4384,-4.4439,-4.446,-4.4476,-4.4529,-4.4547,-4.4629,-4.4625,-4.4678,-4.4778,-4.4815,-4.4846,-4.4952,-4.4944,-4.497,-4.5016,-4.5066,-4.5077,-4.5087,-4.5123,-4.5135,-4.4979,-4.4979,-4.4979,0,-4.4276,-4.4366,-4.4383,-4.4448,-4.4484,-4.4482,-4.455,-4.4585,-4.4655,-4.468,-4.4661,-4.4786,-4.4821,-4.4918,-4.4944,-4.4971,-4.4989,-4.4962,-4.5075,-4.5085,-4.5094,-4.5128,-4.5142,-4.4981,-4.4981,-4.4981,-4.498,0,-4.4403,-4.4466,-4.4514,-4.4582,-4.4624,-4.469,-4.4717,-4.4757,-4.4763,-4.4785,-4.4868,-4.4911,-4.4975,-4.5,-4.5005,-4.5098,-4.5086,-4.5071,-4.5034,-4.511,-4.5142,-4.5155,-4.4985,-4.4984,-4.4983,-4.4983,0,0,-4.4505,-4.4583,-4.46,-4.4631,-4.4692,-4.474,-4.4808,-4.4871,-4.4904,-4.4953,-4.5008,-4.5094,-4.5081,-4.5117,-4.5127,-4.5171,-4.525,-4.5151,-4.5152,-4.5165,-4.5353,-4.5361,-4.5376,-4.5247,-4.525,-4.5252,-4.5348,0,-4.4598,-4.4716,-4.4734,-4.4837,-4.4894,-4.4895,-4.4953,-4.4997,-4.502,-4.5072,-4.5099,-4.5158,-4.5137,-4.5158,-4.5203,-4.5231,-4.5287,-4.5225,-4.5297,-4.5299,-4.528,-4.5393,-4.5402,-4.5491,-4.5361,-4.5363,-4.5364,0,-4.4721,-4.4774,-4.4883,-4.4936,-4.4961,-4.5013,-4.5072,-4.5122,-4.5172,-4.5186,-4.5228,-4.5233,-4.5302,-4.5266,-4.5361,-4.5318,-4.5349,-4.5368,-4.5372,-4.5376,-4.5333,-4.5398,-4.552,-4.5531,-4.5385,-4.5383,-4.5382,0,-4.4781,-4.488,-4.4957,-4.4984,-4.5049,-4.5085,-4.5114,-4.5162,-4.5199,-4.5251,-4.5275,-4.5335,-4.5367,-4.5413,-4.5434,-4.5406,-4.5527,-4.5493,-4.5539,-4.5538,-4.5561,-4.5559,-4.5686,-4.5587,-4.5587,-4.5587,-4.5586,0,-4.4881,-4.4947,-4.4985,-4.5032,-4.5107,-4.5128,-4.5201,-4.5228,-4.5271,-4.5324,-4.5329,-4.5378,-4.5405,-4.5458,-4.5476,-4.555,-4.5566,-4.5578,-4.5581,-4.5575,-4.5573,-4.5593,-4.5586,-4.559,-4.5589,-4.5589,-4.5588,0,-4.4958,-4.4987,-4.5071,-4.5127,-4.5143,-4.5194,-4.5242,-4.5288,-4.5312,-4.5379,-4.5396,-4.5434,-4.5497,-4.5524,-4.5601,-4.5613,-4.5698,-4.5698,-4.568,-4.568,-4.5724,-4.5718,-4.5866,-4.5886,-4.5776,-4.5777,-4.5778,0,-4.5018,-4.5069,-4.513,-4.5166,-4.5196,-4.5254,-4.5291,-4.5315,-4.5354,-4.5416,-4.5454,-4.5518,-4.5569,-4.567,-4.5704,-4.5763,-4.5763,-4.5811,-4.5772,-4.5764,-4.576,-4.5756,-4.576,-4.5817,-4.5818,-4.5819,-4.582,0,-4.512,-4.5132,-4.5187,-4.5247,-4.5292,-4.534,-4.5387,-4.5416,-4.5447,-4.5491,-4.5556,-4.5596,-4.5676,-4.5738,-4.58,-4.5829,-4.5829,-4.5833,-4.5846,-4.5838,-4.5825,-4.583,-4.5696,-4.5828,-4.5827,-4.5826,-4.5826,-4.5826,-4.5189,-4.5234,-4.5284,-4.5344,-4.5382,-4.5427,-4.5472,-4.5503,-4.5557,-4.5624,-4.5635,-4.5704,-4.5754,-4.5837,-4.5869,-4.5923,-4.591,-4.593,-4.5935,-4.5938,-4.594,-4.582,-4.5934,-4.5934,-4.5934,-4.5934,-4.5934,0,-4.5289,-4.5321,-4.5377,-4.5443,-4.5491,-4.5489,-4.5541,-4.5581,-4.5641,-4.5688,-4.5739,-4.5813,-4.5874,-4.5914,-4.5976,-4.6011,-4.6012,-4.6026,-4.6022,-4.6028,-4.5948,-4.5929,-4.6024,-4.6024,-4.6024,-4.6024,-4.6024,-4.6023,-4.5346,-4.5421,-4.5439,-4.5534,-4.5566,-4.5633,-4.5663,-4.5704,-4.5741,-4.5824,-4.5875,-4.5901,-4.5945,-4.601,-4.6066,-4.6076,-4.6097,-4.6111,-4.612,-4.6043,-4.6034,-4.6025,-4.6007,-4.6116,-4.6116,-4.6195,-4.6195,-4.6196]},{"header":{"parameterUnit":"m.s-1","parameterCategory":1,"la1":30.2991,"la2":30.254,"lo1":-89.0895,"lo2":-89.0444,"dy":0.0017,"dx":0.0017,"nx":28,"ny":28,"refTime":"2024-03-12T21:00:00:Z","depth":0,"parameterNumber":3,"parameterNumberName":"V-component_of_WINDS"},"data":[0,0,0,0,0,0,0,0,0,0,0,0,0,0,0,0,0,0,0,0,0,0,0,0,0,0,0,0,0,0,0,0,0,0,0,0,0,0,0,0,0,0,0,0,0,0,0,0,0,0,0,0,0,0,0,0,0,0,2.3389,2.3389,0,2.3432,2.3432,2.3433,2.342,2.342,2.3419,2.3418,2.3459,2.3461,2.3463,0,0,0,0,0,0,0,0,0,0,0,0,0,2.3296,2.3298,2.3389,2.3389,2.339,2.3432,2.3432,2.3433,2.3421,2.3419,2.3418,2.3417,2.3459,2.3461,2.3463,0,0,0,0,0,0,0,0,0,0,0,0,0,2.3337,2.3299,2.3389,2.3389,2.3389,2.3432,2.3432,2.3433,2.3421,2.3419,2.3418,2.3417,2.3458,2.3461,2.3464,2.3507,0,0,2.3472,2.3474,0,0,0,0,0,0,0,0,2.3335,2.3341,2.3388,2.3389,2.339,2.3419,2.3415,2.3458,2.3421,2.3409,2.3418,2.3416,2.3447,2.3451,2.3461,2.3509,2.3511,2.3473,2.3474,2.3476,2.3476,0,0,0,0,0,0,0,2.3332,2.3339,2.3406,2.3389,2.339,2.3387,2.3391,2.3423,2.3435,2.341,2.3409,2.3414,2.3447,2.3459,2.3462,2.3512,2.3472,2.3475,2.3477,2.3478,2.36,2.3602,0,0,0,0,0,0,2.3329,2.3337,2.3404,2.3407,2.3359,2.3389,2.3394,2.3411,2.3434,2.3437,2.3415,2.3414,2.3454,2.3459,2.3464,2.3518,2.3476,2.3478,2.348,2.3599,2.3601,2.3602,0,0,0,0,0,0,2.3327,2.3335,2.3403,2.3372,2.338,2.3392,2.3411,2.3413,2.3424,2.3439,2.344,2.3425,2.3454,2.346,2.3497,2.352,2.348,2.3482,2.3597,2.3599,2.3601,2.3627,0,0,0,0,0,0,2.3325,2.3335,2.3351,2.3372,2.3382,2.3436,2.3413,2.3414,2.343,2.3428,2.3448,2.345,2.3453,2.3493,2.35,2.3523,2.3484,2.3595,2.3598,2.3601,2.3624,2.363,2.3635,0,0,0,0,0,2.3321,2.3356,2.3352,2.3361,2.3403,2.3437,2.3443,2.3446,2.3431,2.3449,2.3458,2.345,2.3516,2.3497,2.3505,2.3529,2.3594,2.3597,2.3601,2.3622,2.3629,2.3635,0,0,0,0,0,0,2.3336,2.3359,2.3355,2.3397,2.3416,2.3435,2.3457,2.3452,2.3474,2.3472,2.3474,2.3478,2.3518,2.3527,2.3505,2.3574,2.3553,2.3558,2.3566,2.3573,2.3578,2.3576,2.3487,0,0,0,0,0,2.3344,2.3371,2.3389,2.3424,2.3434,2.3444,2.3459,2.346,2.3478,2.3486,2.3498,2.3516,2.3541,2.3557,2.3581,2.3626,2.3631,2.3646,2.3651,2.3655,2.366,2.3687,2.3694,2.3614,2.3614,2.3613,0,0,2.3361,2.3377,2.3393,2.3428,2.3442,2.347,2.345,2.3479,2.35,2.349,2.3527,2.3537,2.3557,2.3599,2.3618,2.3608,2.3684,2.366,2.3663,2.3666,2.3691,2.3698,2.3705,2.3616,2.3616,2.3615,0,0,2.3407,2.3421,2.3454,2.3469,2.3492,2.3498,2.3506,2.3527,2.3533,2.3571,2.3565,2.3589,2.3631,2.3647,2.366,2.3715,2.3708,2.3722,2.375,2.3776,2.3782,2.3788,2.3809,2.3816,2.3727,2.3727,2.3727,0,2.3425,2.3467,2.347,2.3501,2.3517,2.3511,2.3544,2.3559,2.3587,2.3599,2.3587,2.3642,2.3655,2.3702,2.3716,2.3726,2.3736,2.372,2.3781,2.3786,2.3792,2.3812,2.382,2.3728,2.3728,2.3728,2.3728,0,2.3489,2.3518,2.3542,2.3572,2.359,2.3622,2.3631,2.3649,2.3649,2.3657,2.3696,2.3712,2.374,2.3751,2.375,2.3798,2.3791,2.378,2.3759,2.3801,2.382,2.3828,2.3731,2.373,2.373,2.3729,0,0,2.3545,2.3578,2.3587,2.3601,2.3627,2.3649,2.3681,2.371,2.3726,2.3746,2.3774,2.3811,2.3802,2.3817,2.3818,2.3841,2.3885,2.3827,2.3828,2.3839,2.3941,2.395,2.3959,2.3881,2.3883,2.3884,2.394,0,2.3594,2.3652,2.3657,2.3708,2.3736,2.3731,2.3759,2.3778,2.3787,2.3812,2.3821,2.3848,2.3833,2.3843,2.3865,2.3875,2.3906,2.3871,2.3907,2.3909,2.3904,2.3969,2.3978,2.4031,2.3947,2.3949,2.3949,0,2.3659,2.3684,2.3738,2.3762,2.3774,2.3799,2.3827,2.3851,2.3872,2.3877,2.3896,2.3894,2.3928,2.3905,2.3952,2.3928,2.3943,2.3951,2.3953,2.3957,2.3932,2.3976,2.4047,2.4056,2.3961,2.396,2.3959,0,2.3696,2.3743,2.3782,2.3795,2.3823,2.3841,2.3853,2.3874,2.3892,2.3915,2.3927,2.3954,2.3969,2.399,2.3996,2.3979,2.4044,2.4021,2.4049,2.4049,2.4064,2.4063,2.414,2.4071,2.4071,2.4071,2.4071,0,2.3752,2.3786,2.38,2.3824,2.3863,2.3868,2.3906,2.3918,2.3936,2.3963,2.396,2.3985,2.3991,2.4017,2.4022,2.4061,2.4068,2.4073,2.4074,2.4074,2.4074,2.4085,2.4082,2.4073,2.4073,2.4072,2.4072,0,2.38,2.3811,2.3854,2.3878,2.3885,2.3913,2.3933,2.3957,2.3965,2.4,2.4008,2.4022,2.4053,2.4061,2.4097,2.4101,2.4148,2.4144,2.4141,2.4141,2.4169,2.4167,2.4257,2.427,2.4192,2.4192,2.4193,0,2.3836,2.3862,2.389,2.3908,2.3922,2.3951,2.397,2.3976,2.3996,2.4024,2.4045,2.4075,2.4101,2.4151,2.4164,2.4192,2.4191,2.422,2.4195,2.4195,2.4193,2.4192,2.4196,2.4225,2.4226,2.4227,2.4227,0,2.3898,2.3903,2.393,2.396,2.3983,2.4006,2.4029,2.4044,2.4054,2.4076,2.4108,2.4128,2.4167,2.4198,2.4227,2.424,2.4236,2.4235,2.4244,2.4244,2.4242,2.4246,2.4156,2.4233,2.4233,2.4232,2.4232,2.4232,2.3942,2.3967,2.3991,2.4022,2.404,2.4062,2.4086,2.4099,2.4126,2.4159,2.4161,2.4197,2.4219,2.4258,2.4273,2.4301,2.4292,2.4304,2.4307,2.431,2.4314,2.4237,2.4306,2.4306,2.4306,2.4305,2.4305,0,2.4006,2.4022,2.4051,2.4084,2.4108,2.4103,2.4128,2.415,2.4182,2.4203,2.4229,2.4267,2.4298,2.4314,2.4345,2.4364,2.4363,2.4372,2.4371,2.4375,2.4319,2.4309,2.4373,2.4373,2.4373,2.4372,2.4372,2.4372,2.4043,2.4085,2.4092,2.4143,2.4158,2.4195,2.421,2.423,2.4248,2.4291,2.4317,2.4328,2.4348,2.438,2.4408,2.4412,2.4424,2.4435,2.4438,2.4385,2.4378,2.4372,2.4363,2.4437,2.4437,2.4492,2.4492,2.4493]}]]